Regional Weather Roundup
Issued by NWS New Orleans/Baton Rouge, LA

Current Version | Previous Version | Text Only | Print | Product List | Glossary On
Versions: 1 2 3 4 5 6 7 8 9 10 11 12 13 14 15 16 17 18 19 20 21 22 23 24 25 26 27 28
000
ASUS44 KLIX 282213
RWRLIX
NEW ORLEANS REGIONAL WEATHER ROUNDUP
NATIONAL WEATHER SERVICE NEW ORLEANS LA
500 PM CDT TUE MAR 28 2017

NOTE: "FAIR" INDICATES FEW OR NO CLOUDS BELOW 12,000 FEET WITH NO
      SIGNIFICANT WEATHER AND/OR OBSTRUCTIONS TO VISIBILITY.
      SKY/WX - SKY CONDITION AND SIGNIFICANT WEATHER.
      TMP - AIR TEMPERATURE.     DP    - DEWPOINT TEMPERATURE.
      RH  - RELATIVE HUMIDITY.   PRES  - PRESSURE.
      HI  - HEAT INDEX.          WCI   - WIND CHILL INDEX.

*  THESE STATIONS ARE NOT NWS OR FAA STATIONS AND ARE NOT UNDER
   NWS QUALITY CONTROL.

LAZ038-040-048-061>063-065>067-069-282300-
SOUTHEAST LOUISIANA

CITY           SKY/WX    TMP DP  RH WIND       PRES   REMARKS
N.O. INTL ARPT MOSUNNY   80  65  59 S12       29.94S
N.O. LAKEFRONT SUNNY     81  66  60 S16       29.94F
N.O. DOWNTOWN*   N/A     82  65  56 S12G18    29.95
RESERVE*       NOT AVBL
SLIDELL        SUNNY     82  62  50 S15       29.94S
BATON ROUGE    MOSUNNY   84  63  49 S9        29.90F
BOOTHVILLE     MOSUNNY   78  69  73 S9        29.96F
BELLE CHASSE   SUNNY    N/A N/A N/A S14       29.95F
BOGALUSA*      NOT AVBL
GALLIANO*      PTCLDY    80  65  60 S10       29.95S
NEW ROADS*       N/A     83  64  50 S9        29.89
GONZALES*      NOT AVBL
HAMMOND*       PTSUNNY   82  61  47 SE14      29.92F
HOUMA*         MOSUNNY   79  68  69 S14       29.95S
PORT FOURCHON* MOCLDY    77  68  73 SE10      29.95F

$$

MSZ070-080>082-282300-
SOUTHERN MISSISSIPPI

CITY           SKY/WX    TMP DP  RH WIND       PRES   REMARKS
MCCOMB         MOSUNNY   83  61  47 S10       29.91F
GULFPORT       SUNNY     77  68  73 S10       29.95F
BILOXI         SUNNY     77  70  79 S12       29.96F
PASCAGOULA     SUNNY     78  64  61 S10       29.96F

$$

COASTAL OBSERVATIONS
LAKE AND NEARSHORE STATIONS

STATION/POSITION TIME  TEMP    WIND        PRES    WAVE
                       AIR SEA DIR/SP/G            HT/PER
                 (UTC) (F)     (DEG/KT/KT) (MB)    (FT/S)
PASCAGOULA       2148   77     170/  8/ 11 1014.5
WAVELAND YACHT   2148   75 76  180/ 12/ 15 1014.1
GRAND ISLE       2148   76 76  160/  8/ 12 1014.2
SOUTHWEST PASS   2148          140/  6/ 10   N/A
NEW CANAL        2148   81 75  150/  7/ 12 1013.6
SHELL BEACH      2148          140/ 13/ 16 1014.4

OFFSHORE STATIONS

STATION/POSITION TIME  TEMP    WIND        PRES    WAVE
                       AIR SEA DIR/SP/G            HT/PER
                 (UTC) (F)     (DEG/KT/KT) (MB)    (FT/S)

$$





USA.gov is the U.S. government's official web portal to all federal, state and local government web resources and services.